Regional Weather Roundup
Issued by NWS

Home | Current Version | Previous Version | Text Only | Print | Product List | Glossary On
Versions: 1 2 3 4 5 6 7 8 9 10 11 12 13 14 15 16 17 18 19 20 21 22 23 24 25 26 27 28 29 30 31 32 33 34 35 36 37 38 39 40 41 42 43 44 45 46 47 48 49 50
000
ASUS43 KOAX 261510
RWRNE

WEATHER ROUNDUP FOR NEBRASKA
NATIONAL WEATHER SERVICE OMAHA NE
900 AM CST WED NOV 26 2014

NOTES: SATELLITE DATA IS BEING USED TO AUGMENT CLOUD COVER ABOVE
       12000 FEET.
       "FAIR" INDICATES FEW OR NO CLOUDS BELOW 12,000 FEET WITH NO
       SIGNIFICANT WEATHER AND/OR OBSTRUCTIONS TO VISIBILITY.

  * THESE STATIONS DO NOT REPORT WEATHER SUCH AS RAIN...SNOW OR FOG.

NEZ001>004-019>022-054>056-261600-
NEBRASKA PANHANDLE

CITY           SKY/WX    TMP DP  RH WIND       PRES   REMARKS
SCOTTSBLUFF    LGT SNOW  29  26  89 W8        30.22R FOG     WCI  21
ALLIANCE       CLOUDY    25  21  85 N6        30.21R WCI  18
CHADRON        LGT SNOW  30  22  72 CALM      30.24R
KIMBALL        LGT SNOW  27  25  95 NW7       30.17R WCI  19
SIDNEY         FLURRIES  28  24  85 NW10      30.20R WCI  19
$$

NEZ057>060-069>072-079>082-261600-
SOUTHWEST NEBRASKA

CITY           SKY/WX    TMP DP  RH WIND       PRES   REMARKS
NORTH PLATTE   CLOUDY    29  19  66 NW15G23   30.22R WCI  18
IMPERIAL       CLOUDY    31  19  61 NW16      30.22R WCI  20
LEXINGTON      CLOUDY    31  22  68 N24G33    30.18R WCI  18
MCCOOK         CLOUDY    33  20  58 N22G29    30.21R WCI  21
OGALLALA       CLOUDY    30  23  73 N12       30.23R WCI  21
$$

NEZ005>010-023>029-035>040-094-261600-
NORTH CENTRAL NEBRASKA

CITY           SKY/WX    TMP DP  RH WIND       PRES   REMARKS
VALENTINE      CLOUDY    22  17  81 NW17      30.25R WCI   8
AINSWORTH      CLOUDY    20  17  88 N22G28    30.23R WCI   4
BROKEN BOW     CLOUDY    27  20  75 N35G41    30.16R WCI  10
O`NEILL        CLOUDY    23  21  92 NW22G32   30.18R WCI   7
ORD            CLOUDY    25  18  74 N26G39    30.15R WCI   9
THEDFORD       CLOUDY    26  22  83 N16G25    30.22R WCI  14
$$

NEZ041-046>049-061>064-073>077-083>087-261600-
SOUTH CENTRAL NEBRASKA

CITY           SKY/WX    TMP DP  RH WIND       PRES   REMARKS
GRAND ISLAND   CLOUDY    28  21  75 NW24G35   30.13R WCI  14
AURORA         CLOUDY    29  23  77 NW32G41   30.09R WCI  13
HASTINGS       CLOUDY    29  21  72 N33G44    30.11R WCI  13
HEBRON         CLOUDY    34  24  66 NW22G33   30.09R WCI  22
HOLDREGE       CLOUDY    31  21  65 N17G37    30.15R WCI  20
KEARNEY *      CLOUDY    30  19  64 NW30G37   30.14R WCI  15
YORK           CLOUDY    30  25  80 N25G36    30.06R WCI  16
$$

NEZ011>018-030>034-042>045-261600-
NORTHEAST NEBRASKA

CITY           SKY/WX    TMP DP  RH WIND       PRES   REMARKS
NORFOLK        CLOUDY    27  23  85 NW26G41   30.06R WCI  12
ALBION         CLOUDY    25  19  77 N24G37    30.10R WCI   9
BLAIR          CLOUDY    36  32  85 NW21G29   29.93R WCI  25
COLUMBUS *     CLOUDY    27  19  74 NW31G41   30.06R WCI  10
FREMONT        CLOUDY    35  33  90 NW26G33   30.00R FOG     WCI  22
TEKAMAH        CLOUDY    36  31  82 N23G33    29.98R WCI  24
WAYNE          FLURRIES  31  27  86 N25G33    30.05R WCI  17
$$

NEZ050>053-065>068-078-088>093-261600-
SOUTHEAST NEBRASKA

CITY           SKY/WX    TMP DP  RH WIND       PRES   REMARKS
LINCOLN        CLOUDY    35  28  75 NW26G37   30.02R WCI  22
OMAHA EPPLEY   LGT RAIN  37  33  85 NW29G37   29.95R WCI  25
BEATRICE       PTSUNNY   33  27  77 NW21G30   30.03R WCI  21
FALLS CITY     LGT RAIN  38  32  79 NW20G38   29.96R WCI  28
NEBRASKA CITY  CLOUDY    37  31  76 NW21G30   29.96R WCI  27
PLATTSMOUTH    LGT RAIN  36  32  84 NW25G32   29.94R WCI  24
$$

NEZ044-045-051>053-067-261600-
OMAHA AREA

CITY           SKY/WX    TMP DP  RH WIND       PRES   REMARKS
OMAHA EPPLEY   LGT RAIN  37  33  85 NW29G37   29.95R WCI  25
BLAIR          CLOUDY    36  32  85 NW21G29   29.93R WCI  25
FREMONT        CLOUDY    35  33  90 NW26G33   30.00R FOG     WCI  22
MILLARD        CLOUDY    37  32  81 NW20G28   29.96R WCI  27
OFFUTT AFB     LGT RAIN  37  32  81 NW17G28   29.93R WCI  28
PLATTSMOUTH    LGT RAIN  36  32  84 NW25G32   29.94R WCI  24
WAHOO          CLOUDY    35  30  83 NW30G40   29.99R WCI  21
$$


USA.gov is the U.S. government's official web portal to all federal, state and local government web resources and services.